QPF
0.07 0.08 0.08 0.07 0.05 0.05 0.05 0.04 0.02 0.01 0.01 0.02 0.01 0.02 0.02 0.03 0.04 0.05 0.05 0.07 0.09 0.09 0.07 0.04 0.03 0.02 0.02 0.02 0.02 0.02 0.02 0.02 0.02 0.02 0.03 0.04 0.05 0.07
0.05 0.05 0.05 0.06 0.06 0.05 0.05 0.04 0.04 0.03 0.01 0.02 0.01 0.02 0.02 0.03 0.05 0.05 0.06 0.07 0.09 0.09 0.06 0.05 0.04 0.03 0.02 0.02 0.02 0.01 0.01 0.01 0.01 0.01 0.01 0.01 0.02 0.02
0.03 0.03 0.03 0.03 0.03 0.03 0.04 0.05 0.06 0.06 0.04 0.03 0.02 0.03 0.03 0.04 0.05 0.06 0.06 0.06 0.06 0.06 0.05 0.05 0.05 0.04 0.03 0.02 0.02 0.02 0.01 0.01 0.01 0.01 0.01 0.01 0.01 0.01
0.03 0.03 0.03 0.02 0.01 0.01 0.02 0.03 0.04 0.07 0.07 0.05 0.05 0.05 0.04 0.05 0.06 0.08 0.08 0.07 0.06 0.06 0.07 0.07 0.06 0.05 0.04 0.03 0.03 0.03 0.02 0.02 0.02 0.02 0.01 0.01 0.01 0.01
0.05 0.04 0.03 0.02 0.01 0.02 0.02 0.03 0.04 0.04 0.05 0.04 0.04 0.04 0.05 0.06 0.08 0.09 0.07 0.05 0.05 0.05 0.07 0.08 0.08 0.07 0.06 0.04 0.03 0.02 0.02 0.03 0.02 0.02 0.02 0.02 0.01 0.01
0.05 0.05 0.04 0.03 0.02 0.02 0.02 0.03 0.04 0.04 0.04 0.03 0.02 0.02 0.03 0.04 0.05 0.06 0.06 0.05 0.04 0.03 0.04 0.06 0.06 0.07 0.06 0.04 0.03 0.02 0.02 0.02 0.02 0.02 0.02 0.02 0.02 0.01
0.05 0.05 0.04 0.03 0.03 0.04 0.03 0.03 0.03 0.02 0.02 0.03 0.02 0.01 0.03 0.03 0.03 0.04 0.04 0.04 0.03 0.02 0.02 0.02 0.03 0.04 0.04 0.04 0.04 0.04 0.03 0.03 0.03 0.02 0.02 0.02 0.03 0.02
0.04 0.04 0.03 0.03 0.03 0.04 0.03 0.03 0.03 0.02 0.02 0.02 0.02 0.02 0.02 0.02 0.03 0.03 0.02 0.02 0.02 0.02 0.01 0.01 0.01 0.02 0.03 0.03 0.04 0.04 0.04 0.04 0.04 0.04 0.03 0.03 0.03 0.03
0.05 0.04 0.03 0.03 0.03 0.03 0.03 0.03 0.03 0.03 0.03 0.02 0.01 0.02 0.02 0.02 0.03 0.03 0.03 0.03 0.02 0.02 0.02 0.01 0.01 0.02 0.03 0.04 0.04 0.04 0.05 0.06 0.05 0.04 0.04 0.03 0.04 0.05
0.05 0.04 0.03 0.02 0.03 0.03 0.03 0.03 0.02 0.02 0.03 0.02 0.01 0.01 0.02 0.02 0.02 0.02 0.02 0.02 0.02 0.02 0.02 0.02 0.02 0.03 0.03 0.03 0.04 0.04 0.04 0.04 0.03 0.03 0.02 0.02 0.02 0.04
0.04 0.04 0.03 0.02 0.03 0.03 0.04 0.03 0.02 0.02 0.03 0.03 0.03 0.03 0.03 0.03 0.03 0.02 0.02 0.03 0.02 0.02 0.03 0.03 0.03 0.03 0.03 0.03 0.03 0.03 0.03 0.03 0.02 0.02 0.01 0.02 0.02 0.03
0.04 0.03 0.03 0.03 0.03 0.03 0.03 0.02 0.02 0.02 0.03 0.02 0.03 0.03 0.03 0.03 0.03 0.03 0.03 0.03 0.03 0.02 0.03 0.04 0.04 0.03 0.03 0.03 0.02 0.02 0.03 0.03 0.03 0.02 0.02 0.01 0.02 0.02
0.03 0.02 0.02 0.03 0.02 0.03 0.02 0.02 0.02 0.02 0.02 0.02 0.02 0.02 0.02 0.03 0.03 0.03 0.03 0.03 0.03 0.03 0.04 0.05 0.05 0.04 0.03 0.02 0.02 0.02 0.02 0.03 0.03 0.03 0.03 0.03 0.03 0.03
0.03 0.02 0.02 0.03 0.03 0.02 0.02 0.02 0.02 0.01 0.01 0.02 0.02 0.02 0.02 0.02 0.03 0.04 0.04 0.04 0.03 0.02 0.02 0.03 0.04 0.04 0.03 0.03 0.03 0.04 0.04 0.05 0.05 0.05 0.04 0.04 0.04 0.04
0.02 0.02 0.03 0.03 0.02 0.02 0.02 0.02 0.02 0.01 0.01 0.01 0.01 0.01 0.02 0.03 0.03 0.04 0.04 0.03 0.02 0.02 0.02 0.03 0.03 0.03 0.03 0.03 0.03 0.03 0.05 0.07 0.08 0.07 0.07 0.05 0.05 0.04
0.03 0.03 0.03 0.02 0.02 0.02 0.02 0.02 0.02 0.02 0.01 0.01 0.01 0.02 0.02 0.03 0.04 0.05 0.05 0.04 0.03 0.03 0.03 0.04 0.04 0.04 0.03 0.03 0.03 0.02 0.03 0.05 0.07 0.06 0.05 0.05 0.04 0.04
0.03 0.04 0.04 0.03 0.02 0.02 0.03 0.03 0.03 0.01 0.01 0.01 0.02 0.02 0.02 0.02 0.03 0.04 0.04 0.03 0.03 0.03 0.04 0.06 0.07 0.07 0.06 0.05 0.04 0.03 0.03 0.06 0.07 0.05 0.04 0.04 0.03 0.02
0.03 0.03 0.03 0.03 0.02 0.02 0.04 0.04 0.03 0.02 0.02 0.03 0.03 0.03 0.03 0.03 0.03 0.03 0.03 0.03 0.03 0.03 0.05 0.07 0.08 0.08 0.08 0.08 0.06 0.05 0.05 0.07 0.07 0.05 0.04 0.03 0.03 0.02
0.02 0.02 0.02 0.02 0.02 0.03 0.05 0.06 0.05 0.04 0.04 0.05 0.04 0.05 0.05 0.04 0.04 0.04 0.05 0.05 0.06 0.06 0.07 0.08 0.08 0.09 0.08 0.08 0.07 0.07 0.07 0.06 0.06 0.05 0.04 0.04 0.03 0.02
0.02 0.03 0.03 0.02 0.03 0.05 0.07 0.08 0.06 0.05 0.05 0.05 0.06 0.07 0.08 0.07 0.06 0.05 0.05 0.05 0.05 0.06 0.06 0.07 0.08 0.08 0.08 0.07 0.06 0.04 0.04 0.04 0.04 0.04 0.04 0.04 0.02 0.02
0.01 0.02 0.02 0.04 0.07 0.07 0.06 0.06 0.06 0.05 0.06 0.06 0.06 0.06 0.06 0.06 0.05 0.05 0.05 0.04 0.04 0.03 0.03 0.03 0.04 0.06 0.06 0.05 0.04 0.03 0.03 0.04 0.04 0.04 0.04 0.03 0.02 0.02
0.01 0.02 0.02 0.03 0.06 0.07 0.05 0.05 0.06 0.07 0.07 0.08 0.08 0.07 0.05 0.04 0.03 0.03 0.03 0.02 0.02 0.02 0.02 0.03 0.05 0.07 0.06 0.06 0.05 0.04 0.04 0.05 0.05 0.05 0.05 0.03 0.03 0.03
0.02 0.03 0.02 0.02 0.02 0.02 0.02 0.03 0.03 0.03 0.03 0.04 0.04 0.04 0.04 0.04 0.03 0.03 0.03 0.03 0.03 0.03 0.02 0.02 0.03 0.05 0.05 0.05 0.06 0.06 0.06 0.06 0.06 0.05 0.05 0.04 0.04 0.03
MSLP
1016.44 1016.67 1016.91 1017.11 1017.25 1017.29 1017.22 1017.05 1016.79 1016.49 1016.17 1015.86 1015.59 1015.38 1015.21 1015.09 1015.01 1014.96 1014.95 1014.98 1015.04 1015.16 1015.31 1015.50 1015.70 1015.90 1016.07 1016.18 1016.23 1016.21 1016.12 1015.98 1015.80 1015.59 1015.36 1015.11 1014.84 1014.54
1016.29 1016.44 1016.60 1016.72 1016.79 1016.80 1016.72 1016.59 1016.40 1016.18 1015.96 1015.75 1015.56 1015.39 1015.25 1015.13 1015.02 1014.93 1014.87 1014.85 1014.88 1014.96 1015.11 1015.30 1015.52 1015.74 1015.93 1016.08 1016.16 1016.17 1016.11 1016.01 1015.87 1015.71 1015.53 1015.33 1015.11 1014.85
1016.09 1016.16 1016.23 1016.27 1016.28 1016.26 1016.18 1016.08 1015.96 1015.83 1015.71 1015.60 1015.50 1015.40 1015.30 1015.19 1015.07 1014.95 1014.84 1014.77 1014.75 1014.80 1014.92 1015.09 1015.31 1015.53 1015.74 1015.90 1016.01 1016.05 1016.04 1015.98 1015.89 1015.79 1015.67 1015.54 1015.38 1015.17
1015.79 1015.80 1015.79 1015.77 1015.73 1015.68 1015.61 1015.55 1015.49 1015.45 1015.42 1015.41 1015.40 1015.38 1015.33 1015.24 1015.13 1014.99 1014.86 1014.75 1014.69 1014.70 1014.78 1014.92 1015.11 1015.32 1015.53 1015.70 1015.82 1015.89 1015.91 1015.89 1015.86 1015.81 1015.76 1015.69 1015.60 1015.46
1015.39 1015.34 1015.29 1015.22 1015.15 1015.08 1015.03 1014.99 1014.99 1015.02 1015.08 1015.16 1015.24 1015.29 1015.30 1015.27 1015.18 1015.05 1014.91 1014.79 1014.70 1014.67 1014.71 1014.81 1014.97 1015.15 1015.33 1015.49 1015.62 1015.70 1015.75 1015.77 1015.78 1015.79 1015.79 1015.78 1015.75 1015.68
1014.90 1014.82 1014.73 1014.64 1014.55 1014.47 1014.43 1014.41 1014.45 1014.54 1014.67 1014.82 1014.98 1015.11 1015.19 1015.22 1015.18 1015.09 1014.97 1014.85 1014.75 1014.70 1014.70 1014.77 1014.88 1015.03 1015.18 1015.32 1015.44 1015.53 1015.59 1015.64 1015.69 1015.73 1015.78 1015.82 1015.85 1015.83
1014.34 1014.25 1014.15 1014.04 1013.94 1013.86 1013.81 1013.81 1013.87 1013.99 1014.16 1014.37 1014.59 1014.80 1014.96 1015.06 1015.09 1015.06 1014.98 1014.89 1014.80 1014.74 1014.73 1014.76 1014.84 1014.95 1015.08 1015.20 1015.31 1015.40 1015.47 1015.54 1015.61 1015.68 1015.76 1015.84 1015.91 1015.95
1013.74 1013.65 1013.54 1013.43 1013.32 1013.23 1013.17 1013.17 1013.23 1013.36 1013.55 1013.79 1014.06 1014.32 1014.56 1014.73 1014.84 1014.89 1014.88 1014.84 1014.78 1014.74 1014.73 1014.75 1014.81 1014.90 1015.01 1015.12 1015.22 1015.32 1015.41 1015.49 1015.58 1015.68 1015.78 1015.88 1015.98 1016.06
1013.10 1013.01 1012.91 1012.80 1012.68 1012.57 1012.49 1012.47 1012.51 1012.63 1012.82 1013.07 1013.37 1013.68 1013.97 1014.22 1014.41 1014.54 1014.61 1014.64 1014.64 1014.63 1014.65 1014.68 1014.75 1014.84 1014.95 1015.06 1015.18 1015.30 1015.41 1015.51 1015.62 1015.74 1015.86 1015.99 1016.11 1016.22
1012.41 1012.33 1012.23 1012.12 1011.99 1011.87 1011.77 1011.71 1011.72 1011.81 1011.98 1012.23 1012.53 1012.87 1013.21 1013.52 1013.79 1014.01 1014.16 1014.26 1014.33 1014.39 1014.44 1014.52 1014.61 1014.73 1014.87 1015.01 1015.16 1015.31 1015.46 1015.60 1015.73 1015.87 1016.02 1016.16 1016.30 1016.44
1011.65 1011.58 1011.50 1011.38 1011.25 1011.11 1010.98 1010.90 1010.87 1010.93 1011.07 1011.30 1011.60 1011.95 1012.33 1012.69 1013.03 1013.31 1013.55 1013.73 1013.87 1014.00 1014.12 1014.24 1014.39 1014.56 1014.74 1014.94 1015.14 1015.34 1015.53 1015.71 1015.89 1016.06 1016.23 1016.39 1016.56 1016.72
1010.80 1010.75 1010.68 1010.58 1010.45 1010.31 1010.17 1010.06 1010.01 1010.03 1010.14 1010.35 1010.64 1011.00 1011.39 1011.80 1012.18 1012.53 1012.83 1013.09 1013.31 1013.50 1013.69 1013.88 1014.09 1014.32 1014.57 1014.83 1015.09 1015.35 1015.59 1015.83 1016.04 1016.24 1016.44 1016.63 1016.82 1017.01
1009.84 1009.82 1009.78 1009.71 1009.60 1009.47 1009.34 1009.22 1009.15 1009.16 1009.25 1009.44 1009.72 1010.08 1010.48 1010.91 1011.33 1011.73 1012.09 1012.41 1012.69 1012.95 1013.21 1013.46 1013.74 1014.03 1014.34 1014.66 1014.99 1015.31 1015.61 1015.88 1016.14 1016.37 1016.59 1016.80 1017.01 1017.23
1008.79 1008.81 1008.82 1008.79 1008.72 1008.62 1008.51 1008.40 1008.34 1008.34 1008.42 1008.60 1008.88 1009.23 1009.64 1010.09 1010.54 1010.97 1011.38 1011.75 1012.08 1012.40 1012.71 1013.02 1013.35 1013.70 1014.07 1014.45 1014.82 1015.19 1015.53 1015.85 1016.13 1016.39 1016.63 1016.86 1017.09 1017.33
1007.68 1007.76 1007.82 1007.84 1007.82 1007.76 1007.68 1007.60 1007.55 1007.56 1007.65 1007.83 1008.10 1008.46 1008.88 1009.33 1009.81 1010.27 1010.71 1011.12 1011.50 1011.86 1012.22 1012.58 1012.95 1013.35 1013.75 1014.17 1014.58 1014.98 1015.35 1015.69 1016.00 1016.27 1016.52 1016.76 1017.00 1017.26
1006.56 1006.69 1006.80 1006.87 1006.89 1006.87 1006.82 1006.77 1006.75 1006.77 1006.87 1007.06 1007.34 1007.70 1008.13 1008.61 1009.10 1009.59 1010.06 1010.51 1010.93 1011.33 1011.73 1012.12 1012.53 1012.95 1013.39 1013.83 1014.26 1014.68 1015.07 1015.42 1015.73 1016.01 1016.26 1016.51 1016.76 1017.02
1005.48 1005.64 1005.78 1005.88 1005.93 1005.93 1005.90 1005.87 1005.86 1005.90 1006.01 1006.21 1006.50 1006.88 1007.33 1007.83 1008.35 1008.87 1009.37 1009.86 1010.32 1010.76 1011.19 1011.62 1012.05 1012.50 1012.95 1013.41 1013.86 1014.28 1014.68 1015.04 1015.36 1015.64 1015.90 1016.14 1016.39 1016.66
1004.47 1004.62 1004.76 1004.85 1004.90 1004.89 1004.87 1004.83 1004.82 1004.87 1004.99 1005.20 1005.51 1005.91 1006.38 1006.90 1007.46 1008.01 1008.57 1009.09 1009.60 1010.08 1010.55 1011.02 1011.49 1011.96 1012.44 1012.91 1013.38 1013.82 1014.23 1014.60 1014.93 1015.22 1015.48 1015.72 1015.97 1016.23
1003.51 1003.63 1003.72 1003.77 1003.77 1003.73 1003.67 1003.61 1003.59 1003.63 1003.75 1003.97 1004.29 1004.71 1005.22 1005.78 1006.37 1006.98 1007.58 1008.16 1008.72 1009.26 1009.78 1010.30 1010.81 1011.32 1011.83 1012.34 1012.83 1013.30 1013.73 1014.12 1014.48 1014.79 1015.07 1015.33 1015.58 1015.84
1002.60 1002.64 1002.64 1002.61 1002.53 1002.42 1002.31 1002.21 1002.16 1002.18 1002.30 1002.53 1002.87 1003.32 1003.85 1004.45 1005.09 1005.75 1006.41 1007.06 1007.68 1008.28 1008.87 1009.44 1010.01 1010.57 1011.13 1011.69 1012.22 1012.74 1013.22 1013.66 1014.05 1014.40 1014.71 1014.99 1015.25 1015.52
1001.71 1001.63 1001.52 1001.38 1001.20 1001.01 1000.83 1000.68 1000.60 1000.60 1000.72 1000.95 1001.31 1001.79 1002.35 1002.99 1003.68 1004.40 1005.11 1005.82 1006.51 1007.18 1007.83 1008.48 1009.11 1009.74 1010.36 1010.98 1011.58 1012.15 1012.69 1013.19 1013.64 1014.05 1014.41 1014.72 1015.02 1015.29
1000.80 1000.59 1000.36 1000.11 999.83 999.56 999.31 999.12 999.01 999.00 999.12 999.36 999.74 1000.24 1000.84 1001.51 1002.24 1003.00 1003.76 1004.53 1005.28 1006.01 1006.73 1007.44 1008.15 1008.85 1009.54 1010.23 1010.90 1011.54 1012.15 1012.72 1013.24 1013.71 1014.13 1014.50 1014.82 1015.12
999.86 999.54 999.19 998.84 998.48 998.14 997.85 997.63 997.50 997.50 997.63 997.89 998.29 998.81 999.42 1000.12 1000.88 1001.66 1002.46 1003.27 1004.07 1004.85 1005.63 1006.40 1007.17 1007.94 1008.70 1009.45 1010.19 1010.90 1011.58 1012.22 1012.80 1013.34 1013.82 1014.24 1014.61 1014.95
Thickness
5753 5751 5749 5749 5748 5746 5743 5739 5732 5724 5725 5730 5731 5733 5732 5730 5728 5726 5724 5721 5718 5716 5714 5712 5710 5707 5704 5702 5699 5697 5694 5691 5689 5686 5684 5682 5680 5679
5750 5748 5747 5746 5745 5744 5742 5739 5735 5730 5724 5729 5730 5731 5729 5727 5725 5723 5721 5718 5715 5713 5711 5709 5706 5703 5701 5698 5695 5692 5690 5687 5684 5682 5679 5677 5675 5674
5747 5745 5744 5743 5741 5740 5738 5736 5733 5730 5724 5726 5727 5727 5725 5723 5721 5719 5717 5714 5712 5710 5707 5705 5702 5700 5697 5694 5691 5688 5686 5683 5680 5678 5675 5673 5670 5668
5743 5741 5740 5740 5737 5736 5734 5732 5731 5729 5725 5721 5722 5721 5720 5720 5717 5715 5713 5711 5708 5706 5704 5701 5698 5696 5693 5690 5687 5684 5681 5678 5676 5673 5670 5668 5665 5663
5740 5738 5737 5735 5733 5732 5730 5729 5727 5727 5724 5720 5718 5717 5716 5714 5712 5710 5708 5705 5704 5702 5700 5697 5694 5691 5689 5686 5683 5680 5677 5674 5671 5668 5665 5662 5660 5657
5738 5736 5735 5733 5730 5728 5727 5725 5723 5721 5719 5716 5713 5711 5710 5709 5706 5703 5700 5699 5698 5698 5695 5693 5690 5687 5684 5682 5679 5675 5672 5669 5666 5663 5660 5657 5654 5651
5734 5733 5732 5731 5729 5727 5725 5722 5719 5716 5714 5711 5708 5706 5704 5702 5700 5699 5696 5695 5693 5692 5690 5687 5685 5682 5679 5676 5673 5670 5667 5664 5661 5658 5655 5652 5648 5645
5730 5729 5728 5727 5725 5724 5722 5721 5718 5714 5710 5708 5705 5703 5702 5700 5698 5696 5692 5688 5686 5688 5684 5682 5680 5677 5675 5672 5670 5666 5663 5660 5656 5653 5650 5647 5643 5640
5726 5725 5724 5723 5721 5719 5718 5717 5715 5714 5712 5708 5704 5702 5699 5698 5694 5690 5688 5685 5684 5684 5680 5677 5675 5673 5671 5669 5666 5662 5659 5655 5652 5648 5645 5642 5638 5635
5723 5721 5718 5717 5716 5714 5712 5710 5709 5708 5707 5706 5703 5702 5699 5696 5693 5690 5687 5683 5682 5679 5676 5671 5671 5669 5668 5665 5662 5658 5655 5651 5648 5644 5641 5637 5634 5630
5718 5717 5714 5712 5711 5709 5706 5703 5703 5703 5703 5701 5699 5697 5695 5692 5688 5683 5679 5676 5674 5673 5671 5667 5666 5663 5661 5659 5657 5654 5650 5647 5643 5640 5636 5633 5629 5625
5712 5711 5710 5708 5706 5703 5699 5697 5695 5696 5695 5693 5691 5689 5687 5685 5683 5679 5676 5671 5668 5667 5667 5663 5660 5656 5652 5653 5651 5648 5645 5641 5638 5634 5631 5627 5623 5618
5706 5705 5704 5702 5700 5697 5694 5693 5692 5690 5687 5684 5682 5680 5679 5677 5675 5673 5671 5668 5664 5662 5663 5659 5655 5650 5646 5644 5643 5641 5639 5636 5632 5629 5625 5622 5617 5613
5701 5700 5698 5696 5693 5691 5688 5686 5684 5681 5678 5675 5673 5671 5670 5669 5668 5667 5665 5663 5661 5660 5658 5654 5650 5646 5641 5636 5634 5633 5631 5629 5627 5623 5620 5616 5611 5608
5696 5695 5692 5689 5686 5683 5681 5679 5675 5672 5669 5666 5664 5664 5664 5663 5661 5659 5657 5655 5654 5653 5651 5648 5645 5641 5637 5632 5629 5626 5623 5622 5620 5617 5613 5609 5606 5602
5688 5686 5683 5680 5677 5674 5672 5670 5667 5664 5661 5659 5657 5656 5656 5654 5651 5649 5646 5645 5643 5644 5643 5641 5638 5634 5630 5627 5623 5620 5617 5614 5613 5610 5606 5603 5600 5598
5679 5675 5672 5669 5667 5664 5662 5661 5659 5656 5654 5652 5650 5648 5646 5644 5643 5641 5639 5636 5633 5633 5632 5631 5629 5627 5624 5621 5616 5614 5612 5609 5607 5604 5599 5596 5595 5593
5669 5666 5664 5661 5659 5657 5654 5652 5650 5648 5647 5645 5643 5640 5638 5636 5634 5633 5630 5627 5625 5624 5622 5620 5618 5616 5614 5612 5611 5608 5605 5603 5600 5597 5594 5590 5588 5588
5659 5658 5656 5654 5652 5650 5648 5645 5643 5642 5640 5637 5635 5633 5631 5628 5627 5625 5623 5620 5617 5616 5614 5611 5609 5606 5603 5603 5603 5602 5599 5596 5592 5589 5586 5584 5583 5583
5652 5650 5649 5647 5645 5643 5641 5639 5637 5635 5632 5630 5628 5626 5623 5621 5619 5617 5614 5612 5609 5607 5605 5603 5601 5599 5597 5595 5594 5594 5593 5590 5586 5583 5580 5577 5575 5575
5644 5642 5641 5639 5638 5636 5634 5631 5629 5627 5625 5622 5620 5619 5616 5614 5611 5609 5606 5603 5601 5599 5597 5597 5596 5595 5591 5588 5585 5585 5585 5584 5583 5579 5575 5571 5568 5566
5636 5634 5632 5631 5630 5628 5625 5623 5621 5619 5617 5615 5613 5611 5609 5606 5604 5601 5599 5596 5594 5592 5591 5590 5589 5587 5583 5581 5579 5578 5576 5576 5575 5573 5571 5570 5565 5562
5628 5626 5624 5622 5620 5619 5617 5615 5613 5612 5610 5608 5605 5603 5601 5598 5596 5594 5592 5590 5588 5586 5584 5582 5581 5579 5578 5576 5573 5571 5570 5568 5566 5565 5564 5564 5563 5562